Location: Te Maire Creek
(41.1333°S, 175.9167°E)
Time: 23:08:17
(UTC+00:00)

Cosmos 1125 Rocket - Pass Details

Date: 19 May 2024
Orbit: 755 x 778 km, 74.0° (Epoch: 22 June)

Event Time Altitude Azimuth Distance (km) Brightness Sun altitude
Rises 18:31:20 0° 201° (SSW) 3,254 6.4 -9.7°
Reaches altitude 10° 18:33:43 10° 202° (SSW) 2,318 5.6 -9.2°
Maximum altitude 18:38:59 78° 287° (WNW) 786 3.5 -8.3°
Drops below altitude 10° 18:44:10 10° 12° (NNE) 2,284 6.4 -7.4°
Sets 18:46:30 0° 14° (NNE) 3,201 7.2 -7.0°
